sat.trackr.live / text

‹ back to catalog

STARLINK-37164

NORAD 68324 · 2026-059D

PAYLOAD ACTIVE UNKNOWN

§ Identity

Operator
Country
US
Launch date
2026-03-22
Launch site
AFETR
Launch vehicle
Mass (kg)
RCS (m²)

Purposes: comms

External: N2YO · Heavens-Above · Gunter

§ Orbital elements

Epoch: 2026-05-24T23:04:19.055424Z

Period
94.11 min
Inclination
53.1595°
Eccentricity
0.0001224
Mean motion
15.30200799 rev/d
Perigee alt
474.4 km
Apogee alt
476.1 km
Semi-major
6,853.3 km
B*
3.0664e-4
RAAN
353.9634°
Arg perigee
84.7161°
Mean anomaly
275.3979°
Rev number
1,098

§ Raw data

STARLINK-371641 68324U 26059D   26144.96133166  .00008734  00000+0  30664-3 0  99902 68324  53.1595 353.9634 0001224  84.7161 275.3979 15.30200799 10988

JSON: /api/v1/satellites/68324 · /tle

For live sub-satellite position, see the globe view (requires WebGL).

§ Visibility from observer

Set your observer location to see the next 7 days of passes ≥ 10°. The values pass through the URL so the page stays shareable.

No JS? Fill the form by hand. The geolocation button needs JavaScript.